Weather History for Kelowna, BC

Change the Weather History Date:

Thursday, March 7, 2013

  Actual Average Record
Temperature  
Mean Temperature 38 °F -  
Max Temperature 43 °F 42 °F 62 °F (2005)
Min Temperature 32 °F 25 °F 14 °F (2002)
Degree Days  
Heating Degree Days 28    
Moisture  
Dew Point 34 °F    
Average Humidity 90    
Maximum Humidity 100    
Minimum Humidity 67    
Precipitation  
Precipitation 0.01 in - - ()
Sea Level Pressure  
Sea Level Pressure 30.01 in    
Wind  
Wind Speed 2 mph ()    
Max Wind Speed 7 mph    
Max Gust Speed -    
Visibility 5.9 miles    
Events Rain    
Averages and records for this station are not official NWS values.
T = Trace of Precipitation, MM = Missing Value Source: Averaged Metar Reports

Daily Weather History Graph

Daily Weather History Graph

Search for Another Location

Airport:

Trip Planner

Search our weather history database for the weather conditions in past years. The results will help you decide how hot, cold, wet, or windy it might be!

Date:

Astronomy

Mar. 07, 2013 Rise Set
Actual Time 6:27 AM PST 5:50 PM PST
Civil Twilight 5:55 AM PST 6:22 PM PST
Nautical Twilight 5:17 AM PST 6:59 PM PST
Astronomical Twilight 4:40 AM PST 7:37 PM PST
Moon 3:52 AM PST (3/7) 1:24 PM PST (3/7)
Length of Visible Light 12h 27m
Length of Day
11h 22m
Waning Crescent, 19% of the Moon is Illuminated
Mar 7
Waning Crescent
Mar 11
New
Mar 19
First Quarter
Mar 27
Full
Apr 2
Last Quarter

Hourly Weather History & Observations

Time (PST) Temp. Windchill Dew Point Humidity Pressure Visibility Wind Dir Wind Speed Gust Speed Precip Events Conditions
12:00 AM 33.8 °F - 33.8 °F 100% 29.86 in 3.0 mi Calm Calm - N/A   Overcast
12:33 AM 33.8 °F 30.8 °F 33.8 °F 100% 29.87 in 3.0 mi NNW 3.5 mph - N/A   Overcast
12:42 AM 33.8 °F 29.6 °F 33.8 °F 100% 29.87 in 3.0 mi NNW 4.6 mph - N/A Rain Light Rain
12:43 AM 33.8 °F 29.6 °F 33.8 °F 100% 29.87 in 2.5 mi NNW 4.6 mph - N/A Rain Light Rain
1:00 AM 33.8 °F 30.8 °F 33.8 °F 100% 29.88 in 3.0 mi NNW 3.5 mph - N/A Rain Light Rain
1:07 AM 33.8 °F - 33.8 °F 100% 29.88 in 3.0 mi Variable 2.3 mph - N/A   Overcast
1:19 AM 33.8 °F - 33.8 °F 100% 29.88 in 3.0 mi Calm Calm - N/A Rain Light Rain
2:00 AM 33.8 °F 30.8 °F 33.8 °F 100% 29.90 in 3.0 mi North 3.5 mph - N/A Rain Light Rain
2:13 AM 33.8 °F 30.8 °F 33.8 °F 100% 29.91 in 3.0 mi NNW 3.5 mph - N/A   Overcast
2:45 AM 33.8 °F - 33.8 °F 100% 29.91 in 3.0 mi NE 2.3 mph - N/A Rain Light Rain
3:00 AM 33.8 °F - 33.8 °F 100% 29.91 in 3.0 mi Variable 2.3 mph - N/A Rain Light Rain
3:13 AM 33.8 °F - 32.0 °F 93% 29.92 in 3.0 mi Calm Calm - N/A   Overcast
3:30 AM 33.8 °F - 32.0 °F 93% 29.92 in 2.5 mi NNE 2.3 mph - N/A   Overcast
4:00 AM 34 °F - 33 °F 95% 29.94 in 2 mi NW 3.5 mph - -   Mist
4:00 AM 33.8 °F 30.8 °F 33.8 °F 100% 29.94 in 2.5 mi NW 3.5 mph - N/A   Overcast
4:30 AM 33.8 °F - 33.8 °F 100% 29.94 in 3.0 mi ENE 2.3 mph - N/A   Overcast
5:00 AM 33.8 °F - 32.0 °F 93% 29.95 in 3.0 mi Calm Calm - N/A   Overcast
5:04 AM 33.8 °F - 32.0 °F 93% 29.95 in 2.2 mi Variable 2.3 mph - N/A   Overcast
5:16 AM 33.8 °F - 33.8 °F 100% 29.96 in 3.0 mi Calm Calm - N/A   Overcast
5:30 AM 32.0 °F - 32.0 °F 100% 29.96 in 2.2 mi North 2.3 mph - N/A   Overcast
6:00 AM 33.8 °F - 32.0 °F 93% 29.97 in 2.5 mi Calm Calm - N/A   Overcast
6:36 AM 33.8 °F - 33.8 °F 100% 29.99 in 3.0 mi East 2.3 mph - N/A   Overcast
7:00 AM 33.8 °F - 32.0 °F 93% 30.00 in 3.0 mi Calm Calm - N/A   Overcast
8:00 AM 35.6 °F - 33.8 °F 93% 30.02 in 5.0 mi Calm Calm - N/A   Overcast
8:26 AM 35.6 °F - 33.8 °F 93% 30.02 in 4.0 mi Calm Calm - N/A Rain Light Rain
8:39 AM 35.6 °F - 33.8 °F 93% 30.02 in 4.0 mi Calm Calm - N/A   Overcast
9:00 AM 37.4 °F - 35.6 °F 93% 30.03 in 5.0 mi Variable 2.3 mph - N/A   Overcast
9:01 AM 37.4 °F - 35.6 °F 93% 30.03 in 6.0 mi Variable 2.3 mph - N/A   Overcast
9:10 AM 37.4 °F - 35.6 °F 93% 30.04 in 7.0 mi Calm Calm - N/A   Mostly Cloudy
9:22 AM 37.4 °F - 35.6 °F 93% 30.04 in 7.0 mi Variable 2.3 mph - N/A   Mostly Cloudy
10:00 AM 39 °F - 35 °F 80% 30.05 in 7 mi WSW 2.3 mph - -   Overcast
10:00 AM 39.2 °F - 35.6 °F 87% 30.05 in 7.0 mi Variable 2.3 mph - N/A   Overcast
10:46 AM 41.0 °F - 35.6 °F 81% 30.06 in 8.0 mi Calm Calm - N/A   Overcast
11:00 AM 41.0 °F - 35.6 °F 81% 30.06 in 9.0 mi Calm Calm - N/A   Overcast
11:29 AM 41.0 °F - 35.6 °F 81% 30.06 in 9.0 mi Variable 2.3 mph - N/A   Overcast
12:00 PM 42.8 °F - 35.6 °F 76% 30.06 in 9.0 mi Variable 2.3 mph - N/A   Overcast
12:22 PM 42.8 °F 38.6 °F 35.6 °F 76% 30.06 in 9.0 mi North 6.9 mph - N/A   Overcast
1:00 PM 42.8 °F 40.1 °F 35.6 °F 76% 30.06 in 9.0 mi North 4.6 mph - N/A   Overcast
1:29 PM 42.8 °F 38.6 °F 35.6 °F 76% 30.07 in 9.0 mi NNW 6.9 mph - N/A   Overcast
2:00 PM 42.8 °F 39.3 °F 35.6 °F 76% 30.07 in 9.0 mi NNW 5.8 mph - N/A   Overcast
3:00 PM 41.0 °F 36.4 °F 35.6 °F 81% 30.08 in 9.0 mi NNW 6.9 mph - N/A   Overcast
3:15 PM 41.0 °F 37.1 °F 35.6 °F 81% 30.09 in 9.0 mi NNW 5.8 mph - N/A   Overcast
4:00 PM 42 °F - 35 °F 67% 30.09 in 10 mi East 2.3 mph - -   Overcast
4:00 PM 41.0 °F 37.1 °F 35.6 °F 81% 30.09 in 9.0 mi Variable 5.8 mph - N/A   Overcast
4:41 PM 41.0 °F 37.1 °F 33.8 °F 76% 30.09 in 9.0 mi SSW 5.8 mph - N/A   Overcast
5:00 PM 41.0 °F 38.0 °F 33.8 °F 76% 30.09 in 9.0 mi South 4.6 mph - N/A   Overcast
5:24 PM 41.0 °F - 35.6 °F 81% 30.10 in 9.0 mi South 2.3 mph - N/A   Overcast
6:00 PM 41.0 °F 39.0 °F 35.6 °F 81% 30.11 in 9.0 mi SE 3.5 mph - N/A   Overcast
6:22 PM 39.2 °F - 33.8 °F 81% 30.11 in 9.0 mi SSW 2.3 mph - N/A   Overcast
7:00 PM 39.2 °F - 35.6 °F 87% 30.12 in 9.0 mi Variable 2.3 mph - N/A   Overcast
8:00 PM 37.4 °F 34.9 °F 33.8 °F 87% 30.12 in 8.0 mi NE 3.5 mph - N/A   Overcast
9:00 PM 35.6 °F 32.8 °F 33.8 °F 93% 30.12 in 9.0 mi NNW 3.5 mph - N/A   Overcast
10:00 PM 35 °F - 33 °F 92% 30.14 in 9 mi North 2.3 mph - -   Overcast
10:00 PM 35.6 °F - 33.8 °F 93% 30.13 in 9.0 mi North 2.3 mph - N/A   Overcast
11:00 PM 33.8 °F 30.8 °F 33.8 °F 100% 30.14 in 9.0 mi North 3.5 mph - N/A   Overcast
11:51 PM 35.6 °F - 33.8 °F 93% 30.14 in 9.0 mi NNW 2.3 mph - N/A   Overcast